SCP
0 0 0 0 0 0 0 0 0 0 0 0 1 1 1 0 0 0 0 1 1 2 2 2 2 3 3 3 3 3 3 3 2 3 3 2 1 1 1 1 1 1 1 0
0 0 0 0 0 0 0 0 0 0 0 1 1 1 1 0 0 0 0 0 1 1 2 3 3 2 3 3 3 3 2 2 2 2 3 2 1 1 1 1 1 1 1 0
0 0 0 0 0 0 0 0 0 0 1 1 1 2 1 1 0 0 0 0 0 1 1 2 2 2 2 2 2 2 1 1 1 1 2 2 1 1 1 1 1 1 1 0
0 0 0 0 0 0 0 0 0 1 1 1 1 1 1 1 1 0 0 0 0 0 0 1 2 2 2 2 2 1 1 1 1 1 1 1 1 1 1 1 1 1 1 0
0 0 0 0 0 0 0 0 0 1 1 1 1 1 1 1 1 0 0 0 0 0 0 0 1 1 1 2 2 2 1 1 1 1 1 1 1 1 1 1 1 1 1 0
0 0 0 0 0 0 0 0 0 1 1 1 0 0 0 1 0 0 0 0 0 0 0 0 1 1 1 1 1 1 1 1 1 1 0 1 1 1 1 1 1 1 1 0
0 0 0 0 0 0 0 0 0 0 0 0 0 0 0 0 0 0 0 0 0 0 0 0 0 1 1 1 1 1 1 1 1 1 0 0 1 1 1 1 1 1 1 0
0 0 0 0 0 0 0 0 0 0 0 0 0 0 0 0 0 0 0 0 0 0 0 0 0 1 1 1 1 1 1 1 1 1 1 0 1 1 1 1 1 1 0 0
0 0 0 0 0 0 0 0 0 0 0 0 0 0 0 0 0 0 0 0 0 0 0 0 0 1 2 2 1 1 1 1 1 1 1 1 1 1 1 0 0 0 0 0
0 0 0 0 0 0 0 0 0 0 0 0 0 0 0 0 0 0 0 0 0 0 0 0 0 1 2 2 1 1 1 1 1 1 1 1 1 1 0 0 0 0 0 0
0 0 0 0 0 0 0 0 0 0 0 0 0 0 0 0 0 0 0 0 0 0 0 0 0 1 1 1 1 1 1 1 1 1 1 1 0 0 0 0 0 0 0 0
0 0 0 0 0 0 0 0 0 0 0 0 0 0 0 0 0 0 0 0 0 0 0 0 0 0 0 0 0 0 0 1 1 1 1 0 0 0 0 0 0 0 0 0
0 0 0 0 0 0 0 0 0 0 0 0 0 0 0 0 0 0 0 0 0 0 0 0 0 0 0 0 0 0 0 0 1 1 1 0 0 0 0 0 0 0 0 0
0 0 0 0 0 0 0 0 0 0 0 0 0 0 0 0 0 0 0 0 0 0 0 0 0 0 0 0 0 0 0 0 1 1 1 0 0 0 0 0 0 0 0 0
0 0 0 0 0 0 0 0 0 0 0 0 0 0 0 0 0 0 0 0 0 0 0 0 0 0 0 0 0 0 0 1 1 1 1 0 0 0 0 0 0 0 0 0
0 0 0 0 0 0 0 0 0 0 0 0 0 0 0 0 0 0 0 0 0 0 0 0 0 0 0 0 0 0 0 0 1 1 1 0 0 0 0 0 0 0 0 0
0 0 0 0 0 0 0 0 0 0 0 0 0 0 0 0 0 0 0 0 0 0 0 0 0 0 0 0 0 0 0 0 1 1 1 0 0 0 0 0 0 0 0 0
0 0 0 0 0 0 0 0 0 0 0 0 0 0 0 0 0 0 0 0 0 0 0 0 0 0 0 0 0 0 0 0 1 1 1 0 0 0 0 0 0 0 0 0
0 0 0 0 0 0 0 0 0 0 0 0 0 0 0 0 0 0 0 0 0 0 0 0 0 0 0 0 0 0 0 0 1 1 1 0 0 0 0 0 0 0 0 0
0 0 0 0 0 0 0 0 0 0 0 0 0 0 0 0 0 0 0 0 0 0 0 0 0 0 0 0 0 0 0 0 0 1 1 0 0 0 0 0 0 0 0 0
0 0 0 0 0 0 0 0 0 0 0 0 0 0 0 0 0 0 0 0 0 0 0 0 0 0 0 0 0 0 0 0 0 0 0 0 0 0 0 0 0 0 0 0
0 0 0 0 0 0 0 0 0 0 0 0 0 0 0 0 0 0 0 0 0 0 0 0 0 0 0 0 0 0 0 0 0 0 0 0 0 0 0 0 0 0 0 0
0 0 0 0 0 0 0 0 0 0 0 0 0 0 0 0 0 0 0 0 0 0 0 0 0 0 0 0 0 0 0 0 0 0 0 0 0 0 0 0 0 0 0 0
0 0 0 0 0 0 0 0 0 0 0 0 0 0 0 0 0 0 0 0 0 0 0 0 0 0 0 0 0 0 0 0 0 0 0 0 0 0 0 0 0 0 0 0
0 0 0 0 0 0 0 0 0 0 0 0 0 0 0 0 0 0 0 0 0 0 0 0 0 0 0 0 0 0 0 0 0 0 0 0 0 0 0 0 0 0 0 0
0 0 0 0 0 0 0 0 0 0 0 0 0 0 0 0 0 0 0 0 0 0 0 0 0 0 0 0 0 0 0 0 0 0 0 0 0 0 0 0 0 0 0 0
Wind_Speed
4 5 2 2 2 2 2 2 3 4 1 0 3 4 5 3 2 3 3 2 2 2 3 4 3 3 3 3 3 3 3 3 2 2 2 1 1 2 2 2 2 3 3 3
4 3 3 1 1 1 1 1 2 3 2 1 2 5 4 3 2 2 2 3 3 3 4 4 3 3 3 2 2 3 2 2 2 1 1 1 1 1 1 2 2 2 3 3
2 2 3 2 2 2 2 3 3 3 3 1 2 5 3 3 2 4 4 4 4 3 4 4 3 4 3 3 2 2 2 2 2 2 2 2 2 2 2 2 2 2 2 2
1 3 3 3 2 1 4 3 3 3 1 2 0 4 4 3 3 4 5 5 4 4 4 3 3 3 3 2 2 3 3 3 3 2 3 3 2 1 1 1 1 1 2 2
2 3 3 3 4 2 3 3 2 2 2 1 1 2 6 2 3 4 4 4 3 3 3 3 3 3 3 2 2 2 3 3 3 3 3 3 2 1 1 2 2 2 2 2
2 1 1 2 3 1 2 2 1 2 2 2 3 3 6 3 4 4 4 3 3 3 4 3 3 2 3 3 2 3 3 3 3 3 3 3 2 2 2 2 1 1 1 1
6 3 3 2 3 3 3 3 3 4 2 4 1 2 6 4 3 3 3 4 3 3 3 3 4 3 3 3 3 3 2 3 3 3 3 2 1 1 1 1 1 1 1 1
4 6 4 3 1 2 1 2 3 2 3 4 2 4 5 3 3 2 2 3 3 4 3 3 3 3 2 3 2 2 2 2 2 2 2 1 1 1 1 1 1 0 0 0
1 5 4 3 2 1 1 0 1 2 1 2 4 5 6 3 5 4 4 4 4 4 4 4 4 3 2 2 2 1 1 2 1 1 1 1 1 1 1 1 0 0 1 0
2 4 5 4 3 4 2 2 3 2 0 3 5 4 4 4 5 5 4 4 4 4 4 4 4 4 2 2 2 2 1 0 0 0 1 1 1 0 0 0 0 1 1 1
1 1 5 4 2 3 3 3 2 1 1 2 4 6 2 3 3 3 4 4 4 4 4 4 3 3 3 3 3 2 2 1 1 1 0 1 1 1 0 0 0 0 1 1
1 2 3 4 1 1 2 1 2 2 2 2 3 7 2 2 2 2 4 4 3 3 3 3 3 3 4 4 3 3 3 2 2 1 0 0 0 1 0 0 1 0 1 1
2 3 3 5 3 3 2 2 0 1 1 2 3 8 3 4 3 3 3 4 4 4 4 4 3 3 3 3 3 3 3 3 3 2 1 1 1 0 1 1 1 1 1 1
4 2 3 5 5 2 3 3 1 2 1 3 6 9 7 7 6 5 5 5 4 4 4 4 3 3 4 3 3 3 3 3 3 2 2 1 1 1 1 1 1 1 1 1
3 1 3 5 4 2 2 3 1 3 5 6 7 7 9 7 6 5 4 4 4 5 5 4 4 4 4 4 4 4 3 3 3 2 2 2 2 1 1 1 1 1 1 1
2 1 1 3 2 2 4 5 4 5 5 6 7 10 7 6 3 3 4 4 4 5 5 5 5 4 4 4 5 4 4 4 3 2 3 3 2 2 2 1 1 1 1 1
1 1 1 3 3 2 5 5 4 4 4 4 6 7 5 5 5 5 5 4 4 5 5 6 5 5 5 4 4 5 4 3 3 2 3 3 2 3 3 2 2 2 2 1
2 1 1 2 4 4 5 1 2 3 5 4 4 5 5 6 5 5 4 3 5 5 6 6 5 5 5 4 4 4 4 3 2 2 3 3 3 3 3 2 2 3 2 2
2 3 1 0 2 7 5 1 1 2 6 3 4 6 7 6 4 4 3 3 4 5 5 5 5 4 4 4 4 4 3 3 2 3 3 3 3 3 3 3 3 3 2 2
2 2 3 2 2 6 5 2 1 1 6 3 2 5 5 4 3 5 4 4 5 5 4 4 4 4 4 4 3 3 3 3 3 3 4 3 3 3 3 3 3 2 2 3
1 1 2 3 4 9 4 2 1 2 6 4 3 4 3 3 5 6 6 5 4 5 5 5 4 4 4 4 3 3 3 3 4 4 3 3 3 3 3 2 2 2 2 2
5 4 4 3 4 9 2 3 5 6 3 3 3 3 4 5 6 6 6 6 5 5 5 5 4 4 4 3 2 3 3 4 4 3 3 3 3 3 3 2 2 2 1 2
6 7 6 8 8 3 4 5 4 2 3 4 3 4 3 5 6 6 6 5 5 5 5 4 4 5 4 3 2 3 4 4 3 3 3 3 3 3 2 1 2 2 1 1
4 2 3 5 8 5 5 5 4 3 4 5 4 4 3 5 6 6 6 5 5 5 5 4 4 4 5 4 4 3 4 3 2 2 3 3 2 2 2 1 1 1 1 2
5 5 3 6 6 5 5 6 6 5 4 5 5 4 4 4 6 5 5 5 5 5 5 4 3 4 5 4 4 4 3 2 2 3 3 2 2 2 2 2 1 2 2 3
6 7 7 7 6 5 5 4 3 3 4 4 4 5 4 4 5 5 5 5 5 5 4 4 4 4 5 4 4 4 3 2 2 2 2 2 2 1 1 2 2 4 4 5
Wind_Direction
21 53 30 259 206 210 189 192 245 265 275 222 236 269 291 310 351 345 338 340 338 323 335 347 348 7 27 28 48 50 46 38 55 81 89 100 78 60 64 75 81 99 112 116
40 6 293 287 337 330 232 215 263 296 332 261 262 278 293 318 322 322 327 330 328 338 349 350 5 22 24 25 45 46 43 44 39 57 76 105 107 79 61 58 67 78 91 107
117 292 326 22 10 338 288 227 244 268 324 360 315 293 292 322 356 1 6 359 354 351 337 333 5 13 12 17 27 40 32 35 37 45 76 70 71 68 60 54 46 48 88 95
351 321 356 12 339 304 277 270 265 266 302 294 320 286 284 295 329 344 344 349 351 345 338 338 6 4 356 360 16 36 34 33 36 54 91 96 92 90 66 89 61 52 81 100
320 342 0 347 321 306 262 301 277 248 186 289 319 254 288 337 309 315 319 329 339 337 336 340 353 347 346 3 27 42 45 38 35 41 68 85 66 50 54 66 79 71 68 91
300 314 10 296 317 312 313 357 22 49 85 271 244 200 281 271 268 289 302 318 329 336 338 348 352 358 4 15 24 48 57 45 45 52 58 66 62 50 67 57 66 58 50 57
341 341 350 356 352 2 28 58 22 1 353 261 223 206 259 266 265 260 281 298 316 330 339 351 350 352 1 15 25 37 56 45 44 49 62 70 57 87 111 89 85 42 37 27
352 318 336 357 1 299 312 130 155 218 254 288 306 243 265 298 324 326 317 322 336 338 341 347 339 341 0 7 22 31 52 48 48 46 35 66 63 57 40 39 63 253 259 303
346 288 322 346 342 72 49 83 161 141 297 292 281 292 303 347 348 347 340 345 337 333 339 340 341 344 360 6 2 22 38 34 41 33 21 41 67 47 30 8 37 295 298 291
183 278 304 323 10 24 71 128 84 103 105 286 296 280 276 312 316 317 318 318 317 323 327 333 341 342 349 2 354 2 9 346 1 70 30 360 42 43 107 90 22 351 324 317
147 228 310 356 18 326 23 44 71 117 149 182 282 277 247 246 279 290 295 303 313 320 322 326 337 345 359 14 11 355 346 355 6 28 39 14 19 12 59 119 261 296 307 305
91 117 287 274 261 51 113 134 142 158 248 200 232 274 317 281 293 300 303 311 316 320 324 330 344 356 1 1 2 359 355 353 343 339 345 327 6 44 38 225 248 267 279 285
101 93 347 339 346 10 13 353 330 169 136 187 227 272 337 353 344 334 319 321 327 332 336 345 353 354 348 343 346 349 352 349 345 350 346 337 351 13 341 282 250 230 247 265
103 124 180 222 253 276 298 326 19 122 189 238 240 264 301 321 320 322 322 323 328 330 336 347 347 342 338 336 339 341 339 344 346 350 341 323 296 275 265 300 277 244 231 226
96 197 243 253 262 250 273 301 304 207 220 228 258 265 283 294 289 293 303 319 332 335 339 339 335 331 333 336 336 332 326 330 334 339 332 319 310 307 298 299 293 265 247 247
74 217 291 283 257 263 291 299 274 253 251 252 275 280 287 301 310 312 310 315 317 322 327 328 327 326 324 323 320 319 319 324 329 327 317 316 319 320 307 299 302 296 282 264
83 122 340 289 313 332 292 269 228 238 237 215 241 266 311 320 315 303 301 311 310 314 318 318 315 309 307 306 310 311 312 319 326 325 320 318 319 320 307 305 302 289 281 272
153 144 187 301 8 262 250 196 210 240 260 238 256 286 300 289 294 300 294 292 303 309 308 309 311 310 309 310 314 313 315 320 325 324 319 318 323 320 317 313 297 290 282 270
155 151 140 119 284 277 288 253 165 232 282 246 262 289 302 314 323 310 302 299 294 300 300 300 301 300 305 308 312 318 322 325 327 323 317 316 313 304 308 308 298 292 288 279
73 101 129 148 224 256 265 277 261 145 287 284 266 281 298 344 334 294 317 321 312 310 308 306 310 314 310 308 316 318 320 327 321 313 308 307 304 296 291 291 290 288 282 280
67 75 178 204 236 264 258 270 100 150 270 301 271 270 275 242 241 275 305 308 306 309 311 318 322 316 303 305 314 314 320 311 305 308 311 314 310 300 288 286 282 276 283 291
180 178 198 178 220 259 202 140 187 230 278 287 277 268 261 266 279 291 301 308 315 320 324 325 323 313 307 308 316 311 305 304 311 314 315 316 316 308 307 300 299 295 284 284
202 194 193 199 220 247 186 208 231 234 263 270 269 280 275 282 288 298 303 305 309 310 312 315 312 310 314 318 312 295 301 312 316 320 317 316 319 317 309 299 297 296 278 268
240 187 206 255 262 256 248 252 260 251 255 270 274 278 277 278 286 296 302 307 310 311 311 312 315 316 316 319 313 293 297 304 304 304 304 306 313 317 322 315 296 277 269 268
221 176 215 257 274 297 266 242 250 263 269 278 283 276 268 272 285 289 295 300 302 307 313 314 312 306 304 311 309 307 307 301 298 295 293 300 308 308 313 316 301 286 275 271
194 184 189 231 232 217 257 267 256 257 268 270 279 291 287 269 277 288 291 294 299 303 309 313 310 304 304 310 308 310 309 298 281 291 300 299 305 306 312 319 328 328 314 313